Location: Newark
(33.2404°N, 35.6778°E)
Time: 19:59:34
(UTC+00:00)

Hubble Space Telescope - Pass Details

Date: 03 February 2020
Orbit: 536 x 540 km, 28.5° (Epoch: 26 February)

Event Time Altitude Azimuth Distance (km) Brightness Sun altitude
Exits shadow 01:44:10 12° 110° (ESE) 1,669 3.9 -35.4°
Drops below altitude 10° 01:44:30 10° 107° (ESE) 1,777 4.1 -35.3°
Sets 01:47:01 0° 95° (E) 2,668 5.3 -34.8°
